Skip Page Navigation
NASA JPL Caltech
NASA Logo - Jet Propulsion Laboratory + View the NASA Portal
+ Near-Earth Object (NEO) Program
Search JPL
JPL Home Earth Solar System Stars & Galaxies Technology
JPL Solar System Dynamics
BODIES ORBITS EPHEMERIDES TOOLS PHYSICAL DATA DISCOVERY FAQ SITE MAP
JPL Small-Body Database Browser
Search: [ help ]  
27112 (1998 VC35)
Classification: Main-belt Asteroid          SPK-ID: 2027112
Ephemeris | Orbit Diagram | Orbital Elements | Physical Parameters | Discovery Circumstances ]

[ show orbit diagram ]
Orbital Elements at Epoch 2456400.5 (2013-Apr-18.0) TDB
Reference: MPO257054 (heliocentric ecliptic J2000)
 Element Value Uncertainty (1-sigma)   Units 
e 0.2186898 n/a  
a 2.6403684 n/a AU
q 2.0629468 n/a AU
i 12.08557 n/a deg
node 251.35858 n/a deg
peri 249.87583 n/a deg
M 61.84434 n/a deg
tp 2456131.2890857
(2012-Jul-22.78908570)
n/a JED
period 1567.0945662
4.29
n/a
n/a
d
yr
n 0.22972449 n/a deg/d
Q 3.2177900 n/a AU
  Orbit Determination Parameters
   # obs. used (total)      490  
   first obs. used      1981-??-??  
   last obs. used      2013-03-13  
   # oppositions      12  
   planetary ephem.      DE403  
   condition code      0  
   fit RMS      0.54  
   data source      MPC:mpn  
   producer      MPCLINUX  

Additional Information
 T_jup = 3.330 

Ephemeris | Orbit Diagram | Orbital Elements | Physical Parameters | Discovery Circumstances ]

Physical Parameter Table
Parameter Symbol Value Units Sigma Reference Notes
absolute magnitude H 13.6 mag n/a PDS3 (MPO 14561)  

27112 (1998 VC35)          Discovered 1998-Nov-12 by Ueda, S., Kaneda, H. at Kushiro (399)
Reference: 20010804/Numbers.arcLast Updated: 2004-04-19

Alternate Designations
 1998 VC35 = 1981 XL1 = 2000 JW23 
Ephemeris | Orbit Diagram | Orbital Elements | Physical Parameters | Discovery Circumstances ]
ABOUT SSD CREDITS/AWARDS PRIVACY/COPYRIGHT GLOSSARY LINKS
FirstGov 2013-May-23 20:43 UT
(server date/time)  
NASA Home Page
Site Manager:   Donald K. Yeomans
Webmaster  Alan B. Chamberlin